Temperature
21 22 22 21 21 21 21 21 20 21 21 21 22 21 22 21 21 20 19 19 18 18 17 17 16 16 16 15 15 15 15 15 14 14 14 14 14 14 13 13 13 13 13 13
20 21 21 21 21 21 21 21 21 21 21 22 21 21 21 20 20 19 19 18 18 17 17 17 16 16 15 15 15 15 14 14 14 14 14 14 13 13 13 13 13 13 13 12
19 20 20 20 21 21 21 21 21 20 20 21 20 20 19 19 19 18 18 18 17 17 17 16 16 15 15 15 14 14 14 14 13 13 13 13 13 13 13 12 12 12 12 12
19 19 18 20 22 21 21 21 20 20 20 19 19 19 19 18 18 17 17 17 17 17 16 16 16 15 15 14 14 14 14 13 13 13 13 13 12 12 12 12 12 12 12 12
18 18 18 20 20 20 19 19 19 19 19 18 18 18 18 17 17 16 16 16 16 16 16 16 15 15 15 14 14 13 13 13 13 13 12 12 12 12 12 11 11 11 11 11
17 17 17 18 19 19 19 17 18 18 18 17 17 16 16 16 15 15 15 15 15 15 15 15 15 15 14 14 13 13 13 12 12 12 12 12 12 11 11 11 11 11 11 11
17 17 17 18 18 18 17 16 17 17 17 16 16 15 15 15 14 14 14 14 14 14 14 14 14 14 14 13 13 13 12 12 12 12 11 11 11 11 11 11 10 10 10 10
17 16 16 17 17 16 16 16 16 16 15 15 15 14 14 14 14 13 13 13 13 13 13 13 13 13 13 13 13 12 12 11 11 11 11 11 11 11 10 10 10 10 10 10
16 16 16 16 16 16 16 15 15 15 14 14 14 13 13 13 13 13 13 12 12 12 12 12 12 13 13 12 12 12 11 11 11 11 11 11 10 10 10 10 10 10 9 9
16 16 16 16 15 15 15 14 14 14 14 13 13 13 12 12 12 12 12 12 12 12 12 12 12 12 12 12 12 11 11 11 10 10 10 10 10 10 10 10 9 9 9 9
16 16 16 15 15 14 14 13 13 13 13 13 12 12 12 11 11 11 11 11 11 11 11 11 11 11 11 11 11 11 11 10 10 9 9 9 9 9 9 9 9 9 9 9
15 15 15 14 14 13 13 13 12 12 12 12 12 11 11 11 11 11 10 10 10 10 10 10 10 10 10 10 10 10 10 10 9 9 9 9 9 9 8 8 9 8 9 8
14 14 13 13 13 12 12 12 12 11 11 11 11 10 10 10 10 10 10 10 10 10 10 10 10 9 9 10 10 10 10 9 9 9 8 8 8 8 8 8 8 8 8 8
13 13 13 12 12 12 11 11 11 11 10 10 10 10 10 10 9 9 9 9 9 9 9 9 9 9 9 9 9 9 9 9 9 8 8 8 8 7 7 7 7 7 7 7
12 12 12 11 11 11 11 11 10 10 10 10 9 9 9 9 9 9 9 9 8 8 8 8 8 8 8 8 9 9 8 8 8 8 8 7 7 7 7 7 7 7 6 7
11 11 11 11 11 10 10 10 10 10 9 9 9 8 8 8 8 8 8 8 8 8 8 8 8 8 8 8 8 8 8 8 8 7 7 7 7 7 7 6 6 6 6 6
11 11 10 10 10 10 10 9 9 9 9 9 8 8 8 8 8 8 8 7 7 7 7 7 7 7 7 7 7 7 7 7 7 7 7 7 7 6 6 6 6 6 6 6
10 10 10 10 9 9 9 9 9 9 9 8 8 8 8 8 7 7 7 7 7 7 7 7 7 7 7 7 7 7 6 6 7 6 6 6 6 6 6 6 5 5 5 5
10 9 9 9 9 9 9 8 8 8 8 8 8 7 7 7 7 7 7 6 6 6 6 6 6 6 6 6 6 6 6 6 6 6 6 6 6 5 5 5 5 5 5 5
9 9 9 9 8 8 8 8 8 8 8 7 7 7 7 7 6 6 6 6 6 6 6 6 6 6 5 5 5 5 5 5 5 5 5 5 5 5 5 5 5 5 4 4
8 8 8 8 8 8 7 7 7 7 7 7 7 6 6 6 6 6 5 5 5 5 5 5 5 5 5 5 5 5 5 5 4 4 4 5 5 5 5 4 4 4 4 4
8 8 8 7 7 7 7 7 7 7 6 6 6 6 5 5 5 5 5 5 5 5 4 4 4 4 4 4 4 4 4 4 4 4 4 4 4 4 4 4 4 4 3 3
7 7 7 7 7 7 6 6 6 6 6 5 5 5 5 5 4 4 4 4 4 4 4 4 4 4 4 4 4 4 4 4 3 3 4 4 4 4 4 3 3 3 3 3
7 7 7 6 6 6 6 6 5 5 5 5 4 4 4 4 4 4 4 4 3 3 3 3 3 3 3 3 3 3 3 3 3 3 3 3 3 3 3 3 3 3 3 3
6 6 6 6 6 5 5 5 5 4 4 4 4 3 3 3 3 3 3 3 3 3 3 3 3 3 3 2 2 2 2 2 2 2 2 2 2 2 3 2 2 2 2 2
5 5 5 5 5 5 4 4 4 3 3 3 3 3 3 3 3 3 2 2 2 2 2 2 2 2 2 2 2 2 2 2 2 2 2 2 2 2 2 2 2 2 2 1
5 5 4 4 4 4 3 3 3 3 3 2 2 2 2 2 2 2 2 2 2 2 2 2 2 2 2 1 1 1 1 1 1 1 1 1 1 1 1 1 1 1 1 1
Wind_Speed
12 11 10 10 11 11 11 11 11 10 9 6 4 3 2 0 1 2 2 2 2 2 2 3 4 4 3 3 3 3 3 2 2 2 2 2 2 2 2 2 2 2 2 2
13 13 12 13 12 11 12 12 12 11 9 6 4 4 4 4 3 2 2 1 0 2 2 3 3 3 3 3 3 3 3 3 2 2 2 2 2 2 2 2 2 1 1 1
11 11 12 12 10 10 9 9 8 7 5 5 4 4 4 4 4 3 2 2 2 2 2 2 4 4 4 4 3 3 3 3 2 2 2 2 2 1 2 2 1 1 1 2
9 9 11 5 3 4 4 3 3 4 5 6 6 4 2 3 4 4 4 4 3 2 1 2 2 3 4 3 4 4 3 3 3 3 2 2 2 2 2 2 2 2 2 1
7 9 9 6 4 3 4 3 4 4 6 7 7 4 3 5 6 5 4 4 3 3 3 2 2 3 4 4 4 3 3 3 2 2 2 2 3 2 2 2 2 2 2 2
7 8 7 4 4 5 4 2 5 6 7 7 7 4 4 7 7 6 5 4 3 3 3 2 1 2 3 4 4 3 3 2 2 2 3 3 3 3 2 2 3 2 2 2
9 9 5 3 4 5 3 2 6 7 7 7 5 4 5 6 6 5 4 4 3 3 3 2 2 0 2 3 3 2 2 2 2 2 3 3 3 3 2 3 3 2 2 2
7 8 4 4 3 3 3 4 5 7 7 7 6 6 5 5 5 5 4 3 3 3 2 2 1 1 1 1 1 2 1 1 1 2 2 2 2 2 2 2 3 2 2 2
4 3 2 4 4 4 5 4 5 5 6 6 6 5 5 5 5 5 4 3 3 3 3 2 1 1 1 0 1 2 2 1 1 1 1 2 2 2 2 2 2 2 2 2
6 4 3 2 3 4 4 4 5 5 6 5 5 5 5 4 4 4 4 3 3 3 3 3 2 2 1 1 0 1 2 2 1 1 1 1 1 2 2 2 3 3 3 3
8 6 3 3 3 4 4 4 5 6 6 5 5 5 5 4 4 4 3 3 2 2 2 3 3 1 1 1 1 1 1 2 1 1 1 1 0 1 2 2 3 3 3 3
6 6 5 4 3 4 4 4 5 6 6 6 5 5 5 4 4 3 3 3 2 2 2 2 3 2 2 1 1 2 1 1 1 1 1 1 1 0 0 2 2 3 2 2
6 6 6 4 4 4 4 4 5 5 6 6 5 5 5 4 4 3 3 3 3 2 3 3 2 3 3 2 2 2 1 1 1 1 1 1 2 2 1 0 1 1 2 3
5 5 5 4 4 4 5 5 4 4 4 4 5 5 4 4 3 3 3 3 3 3 2 2 2 3 4 3 2 2 1 1 1 1 1 1 2 2 2 3 2 0 1 3
4 5 5 4 4 4 5 4 4 4 4 4 4 4 4 4 3 3 3 3 3 2 2 2 2 3 3 3 2 2 1 1 1 0 1 1 1 1 2 2 2 1 1 1
5 4 4 4 4 5 5 5 5 4 4 4 4 4 4 4 4 4 3 3 3 3 2 2 2 3 3 3 3 2 1 1 1 1 1 1 1 1 1 2 2 2 1 1
5 4 4 4 4 4 5 5 5 4 4 4 4 3 3 3 4 3 3 3 3 3 2 2 2 2 3 2 2 2 1 1 1 1 1 1 1 1 1 2 2 2 2 2
4 3 4 4 4 5 5 5 5 4 4 4 3 3 3 3 3 3 3 3 3 2 2 2 2 3 3 2 2 1 1 1 1 1 1 1 1 1 1 2 2 2 2 2
4 4 4 4 4 4 4 4 4 3 3 3 3 4 4 4 3 2 2 3 3 3 3 2 3 3 2 3 3 1 1 1 1 1 1 2 2 2 2 2 2 2 2 2
4 3 3 4 4 4 4 4 3 3 2 3 3 3 3 3 2 2 2 2 2 2 3 3 3 2 2 2 3 1 1 2 2 2 1 2 2 2 2 1 1 1 2 2
3 3 3 3 3 4 4 4 3 3 3 3 3 3 3 3 2 2 2 2 2 2 3 3 3 2 2 3 2 2 1 2 2 2 2 1 1 1 1 1 1 1 1 1
3 3 3 3 3 3 3 3 3 3 3 3 3 3 3 3 3 2 2 2 2 2 3 2 2 3 4 4 2 2 2 2 1 2 2 1 1 1 1 1 1 1 1 1
3 3 3 3 3 3 3 3 2 2 2 3 3 2 2 3 2 2 2 2 2 3 3 2 3 5 6 3 2 2 3 2 2 2 1 1 1 1 1 1 1 1 1 1
4 4 4 3 2 3 3 3 2 1 2 3 3 2 2 2 2 2 1 2 4 4 2 2 5 6 5 2 2 2 3 2 2 1 1 1 1 1 1 1 1 0 1 1
4 4 4 3 2 2 2 2 2 1 2 2 3 3 2 2 2 2 2 2 3 4 3 3 5 5 3 2 2 2 2 2 2 2 1 1 1 1 0 1 1 0 0 0
4 3 2 2 2 2 1 1 1 1 1 1 2 2 2 2 2 2 2 2 3 4 3 2 2 2 2 2 3 3 2 2 2 2 1 1 1 1 0 0 0 0 1 0
3 2 2 2 2 1 1 1 1 1 1 2 2 2 2 2 2 3 3 3 2 2 2 2 2 2 2 2 3 2 2 2 1 1 1 2 1 1 1 0 0 0 0 1
Wind_Direction
281 285 286 277 267 266 264 266 271 281 287 293 294 302 311 115 107 113 120 125 143 188 191 181 169 167 173 177 182 182 181 205 223 225 203 202 204 209 224 228 234 224 232 205
280 278 274 273 264 259 261 265 268 272 281 308 334 352 358 20 34 56 76 78 111 234 220 192 181 182 179 188 197 190 193 213 221 225 194 196 216 204 210 220 232 210 225 202
277 283 281 266 261 256 256 266 275 279 298 337 346 352 357 4 6 5 2 330 268 249 236 225 201 189 185 193 199 196 199 210 207 214 199 199 227 219 214 205 211 225 209 170
273 273 259 272 315 308 295 304 340 332 350 357 348 336 333 9 356 353 352 335 326 301 266 256 232 189 181 186 198 198 200 206 205 202 204 204 208 213 224 232 206 217 236 207
265 269 267 272 306 317 291 300 357 352 357 354 340 332 8 17 0 345 341 337 340 329 305 268 232 191 183 191 195 193 196 203 204 203 203 206 210 215 228 227 217 213 215 222
259 264 268 303 355 334 303 271 24 5 351 338 336 325 333 355 353 348 351 355 347 328 313 302 275 189 187 189 188 188 193 202 205 205 210 213 211 216 226 215 214 217 215 207
255 259 268 358 352 328 289 356 11 358 349 345 340 334 332 344 343 348 2 358 351 341 330 317 326 238 195 191 192 184 187 202 201 204 213 217 215 212 213 214 209 217 223 214
259 257 260 24 1 354 -0 6 359 358 349 345 346 350 358 356 351 353 357 358 358 352 340 340 343 315 230 214 174 142 156 185 202 214 222 222 204 219 219 213 206 213 233 233
279 273 335 352 0 358 352 349 353 354 346 342 342 343 346 350 347 348 347 350 359 354 344 338 351 347 295 289 110 134 147 189 209 216 212 198 196 200 210 217 216 218 223 226
277 273 291 296 315 337 340 348 347 345 345 343 337 339 340 336 331 334 341 348 350 349 350 343 351 354 338 348 341 177 168 183 196 210 218 196 191 195 201 220 223 218 218 223
280 282 303 312 324 335 342 340 336 335 336 339 336 332 332 326 326 325 328 333 335 335 333 329 333 329 321 339 317 268 196 183 195 200 198 163 142 222 214 221 218 214 218 213
285 307 299 298 313 329 327 330 331 331 335 338 334 326 324 323 321 320 325 325 332 337 329 325 336 336 324 312 283 266 220 190 176 171 176 166 166 360 347 200 179 175 174 176
304 316 320 321 326 318 310 315 320 323 326 327 330 326 320 317 317 324 327 329 333 328 324 332 343 336 325 320 298 281 229 192 178 186 198 211 210 201 202 97 86 117 161 168
316 309 296 301 305 307 306 305 308 314 321 326 328 325 321 319 319 322 322 326 324 323 326 330 334 331 326 317 303 294 288 223 193 195 208 227 231 223 195 181 173 238 239 187
312 305 298 302 301 304 307 304 301 306 315 320 323 321 319 317 313 313 314 309 310 313 319 321 324 329 321 321 314 308 306 265 196 184 230 244 222 218 186 172 164 150 110 191
293 290 292 294 298 305 308 306 300 296 303 308 309 307 314 317 314 309 307 308 305 304 308 312 315 318 318 326 334 331 319 276 224 190 226 229 210 194 166 154 153 160 178 190
275 277 286 289 290 296 298 299 295 294 296 300 301 299 305 308 307 310 317 318 305 307 321 321 322 328 322 330 342 336 331 260 253 245 241 245 234 208 189 171 173 183 190 177
269 275 282 285 292 294 297 299 298 296 292 292 299 298 286 283 286 295 307 312 317 325 332 336 342 327 322 344 345 335 311 262 233 237 246 260 266 242 210 195 191 194 181 172
276 274 279 283 287 288 292 299 302 310 315 306 297 291 290 295 297 301 314 321 318 324 337 2 347 331 344 354 351 338 309 299 294 260 254 255 260 239 216 198 192 186 171 165
295 293 287 290 301 302 300 298 305 316 317 311 301 295 303 311 315 310 304 313 320 340 352 355 342 338 351 345 345 330 327 304 290 287 261 248 254 231 205 192 182 175 175 180
296 302 303 303 302 299 300 307 309 314 317 310 301 300 309 315 316 319 319 315 330 8 358 345 340 345 349 340 321 303 286 279 284 284 271 255 260 244 193 179 178 179 185 182
295 302 303 299 287 290 303 311 315 315 317 317 314 315 313 313 320 328 320 317 337 360 350 337 345 350 343 338 319 313 298 282 274 275 273 268 263 247 201 181 179 178 177 182
303 298 294 289 289 298 311 320 328 333 333 326 320 321 319 319 319 309 312 338 348 338 341 341 339 332 325 318 306 305 300 292 280 277 281 269 269 269 230 191 181 179 178 183
307 303 299 295 295 296 301 310 320 337 341 334 335 333 325 320 329 344 345 341 340 330 331 320 319 318 318 305 295 290 288 287 285 281 294 294 273 256 235 194 173 179 196 196
303 306 311 306 291 288 298 316 329 351 343 341 342 346 347 345 335 336 335 332 330 327 322 307 309 312 314 313 306 296 295 294 293 294 293 290 283 265 234 169 163 169 195 216
304 309 317 317 314 308 316 332 323 319 334 331 329 342 352 351 342 330 321 322 319 313 316 311 300 297 307 311 303 304 306 303 295 293 304 298 281 270 231 132 196 195 200 215
294 300 302 303 305 309 322 316 306 308 314 316 319 322 323 326 325 321 317 315 316 315 318 325 323 320 320 311 304 307 307 306 306 312 316 307 294 246 189 184 240 250 230 236
Height
1487 1483 1483 1484 1486 1486 1488 1488 1492 1488 1485 1482 1479 1480 1480 1481 1483 1484 1486 1487 1489 1490 1491 1492 1493 1494 1495 1496 1497 1497 1498 1499 1500 1501 1501 1502 1502 1503 1503 1504 1505 1505 1506 1506
1489 1483 1482 1483 1481 1482 1483 1482 1483 1482 1482 1478 1479 1479 1479 1481 1482 1484 1485 1486 1488 1488 1489 1489 1490 1491 1492 1493 1494 1495 1495 1496 1497 1497 1498 1498 1499 1500 1500 1500 1501 1502 1502 1502
1492 1484 1484 1485 1477 1477 1478 1476 1478 1482 1482 1478 1479 1480 1481 1482 1483 1484 1484 1485 1485 1486 1486 1487 1487 1488 1489 1490 1491 1492 1492 1493 1493 1494 1494 1495 1496 1496 1497 1497 1498 1498 1498 1499
1491 1490 1497 1482 1471 1472 1474 1475 1476 1478 1479 1480 1480 1481 1481 1481 1482 1482 1483 1483 1483 1483 1484 1484 1485 1485 1486 1487 1488 1488 1489 1490 1491 1491 1491 1492 1492 1493 1493 1494 1494 1494 1495 1496
1493 1493 1486 1478 1474 1475 1477 1478 1478 1479 1480 1481 1480 1479 1479 1481 1481 1481 1481 1481 1481 1481 1481 1481 1481 1482 1483 1484 1485 1485 1486 1486 1487 1488 1488 1488 1489 1489 1490 1490 1491 1491 1492 1492
1492 1496 1494 1482 1477 1475 1476 1482 1481 1481 1481 1481 1480 1482 1481 1481 1480 1480 1479 1479 1478 1478 1478 1478 1478 1479 1480 1481 1481 1482 1482 1483 1484 1484 1484 1484 1485 1486 1486 1487 1487 1488 1488 1489
1489 1490 1485 1480 1477 1477 1486 1487 1483 1482 1482 1482 1482 1483 1481 1479 1479 1479 1478 1477 1476 1476 1476 1475 1475 1476 1477 1478 1478 1479 1479 1480 1480 1481 1481 1481 1481 1482 1483 1483 1484 1484 1484 1485
1485 1489 1489 1480 1479 1483 1485 1483 1483 1483 1483 1483 1482 1481 1479 1479 1478 1477 1476 1475 1474 1474 1473 1473 1473 1474 1474 1475 1475 1476 1476 1477 1477 1477 1477 1478 1478 1479 1479 1480 1480 1480 1480 1480
1483 1486 1482 1481 1482 1483 1483 1483 1483 1483 1483 1482 1481 1480 1479 1478 1477 1476 1475 1474 1473 1472 1472 1472 1471 1471 1471 1472 1472 1473 1473 1473 1473 1474 1474 1474 1475 1475 1475 1476 1476 1476 1477 1476
1480 1479 1480 1481 1481 1482 1483 1483 1483 1482 1482 1481 1480 1478 1477 1476 1475 1474 1474 1473 1472 1471 1470 1470 1470 1469 1469 1469 1469 1469 1469 1470 1470 1470 1470 1471 1471 1471 1472 1472 1472 1472 1472 1473
1479 1479 1480 1480 1481 1481 1481 1481 1481 1481 1480 1479 1478 1477 1476 1475 1474 1473 1472 1471 1470 1469 1469 1468 1468 1467 1467 1467 1466 1466 1466 1466 1467 1467 1467 1467 1468 1468 1468 1468 1468 1469 1469 1469
1479 1479 1479 1479 1480 1480 1480 1480 1480 1479 1478 1477 1476 1475 1474 1473 1472 1471 1470 1469 1468 1468 1467 1466 1466 1465 1465 1465 1464 1464 1463 1463 1464 1464 1464 1464 1464 1464 1464 1464 1464 1465 1465 1466
1478 1478 1478 1478 1478 1478 1478 1478 1478 1477 1476 1475 1474 1473 1472 1471 1469 1468 1468 1467 1466 1466 1465 1464 1464 1463 1463 1462 1462 1461 1461 1460 1461 1461 1461 1461 1460 1460 1460 1460 1460 1460 1461 1461
1477 1477 1476 1476 1477 1476 1476 1476 1475 1475 1474 1473 1472 1471 1469 1468 1467 1466 1465 1465 1464 1464 1463 1462 1461 1460 1460 1459 1459 1458 1458 1458 1458 1458 1457 1457 1457 1457 1457 1456 1456 1456 1457 1458
1475 1475 1475 1474 1474 1474 1474 1473 1473 1472 1471 1470 1470 1468 1467 1466 1465 1464 1463 1463 1462 1461 1460 1460 1459 1458 1457 1456 1456 1456 1455 1455 1455 1454 1454 1454 1454 1453 1453 1454 1454 1454 1454 1454
1473 1473 1473 1473 1472 1472 1472 1471 1470 1469 1469 1468 1467 1466 1465 1464 1463 1462 1461 1460 1460 1459 1458 1457 1456 1455 1455 1454 1453 1452 1452 1452 1452 1451 1451 1451 1451 1450 1450 1451 1451 1452 1452 1452
1470 1470 1470 1470 1470 1470 1469 1469 1468 1467 1466 1465 1465 1463 1462 1461 1460 1460 1458 1458 1457 1456 1455 1454 1453 1453 1452 1451 1450 1449 1449 1448 1449 1448 1448 1448 1448 1448 1448 1449 1449 1449 1449 1449
1467 1468 1468 1468 1467 1467 1466 1466 1465 1464 1463 1462 1462 1461 1460 1459 1458 1457 1456 1455 1454 1453 1453 1452 1451 1450 1449 1448 1447 1446 1446 1446 1445 1445 1445 1445 1445 1446 1446 1446 1446 1447 1447 1447
1464 1465 1465 1464 1464 1464 1463 1462 1462 1461 1460 1459 1458 1458 1457 1456 1455 1454 1453 1452 1451 1450 1449 1449 1448 1447 1446 1445 1444 1443 1443 1442 1442 1442 1443 1443 1443 1443 1443 1444 1444 1444 1444 1444
1462 1462 1462 1461 1461 1461 1460 1459 1458 1458 1457 1456 1455 1454 1453 1453 1452 1451 1450 1450 1449 1448 1447 1446 1445 1444 1443 1442 1441 1440 1440 1439 1439 1439 1439 1440 1440 1440 1440 1441 1441 1441 1441 1441
1460 1459 1459 1458 1458 1458 1457 1457 1456 1455 1454 1453 1452 1451 1450 1450 1449 1448 1447 1446 1446 1445 1444 1443 1442 1441 1440 1439 1438 1437 1437 1437 1437 1436 1436 1437 1437 1437 1437 1438 1438 1438 1438 1439
1457 1457 1456 1456 1456 1455 1455 1454 1453 1452 1451 1451 1450 1449 1448 1447 1446 1446 1445 1444 1443 1442 1441 1440 1439 1438 1437 1436 1435 1435 1434 1434 1434 1434 1434 1434 1434 1434 1434 1434 1435 1435 1436 1436
1455 1454 1454 1453 1453 1452 1452 1451 1451 1450 1449 1448 1447 1446 1445 1444 1443 1443 1442 1441 1440 1439 1438 1437 1436 1435 1434 1433 1433 1432 1432 1432 1431 1431 1431 1431 1431 1431 1431 1431 1432 1432 1433 1433
1453 1452 1451 1450 1450 1449 1449 1448 1448 1447 1446 1445 1444 1443 1442 1441 1441 1440 1439 1438 1437 1436 1435 1434 1433 1432 1431 1430 1430 1429 1429 1429 1428 1428 1428 1428 1428 1428 1428 1428 1428 1429 1429 1429
1450 1449 1448 1447 1447 1446 1446 1446 1445 1444 1443 1442 1442 1441 1440 1439 1438 1437 1436 1435 1434 1433 1432 1431 1430 1429 1428 1427 1427 1427 1426 1426 1426 1425 1425 1425 1425 1424 1425 1425 1425 1425 1426 1426
1448 1447 1446 1445 1445 1444 1444 1443 1442 1441 1441 1440 1439 1439 1438 1437 1436 1435 1433 1432 1431 1430 1429 1428 1427 1426 1426 1425 1425 1424 1424 1423 1423 1422 1422 1422 1421 1421 1421 1422 1422 1422 1422 1422
1445 1445 1444 1443 1442 1442 1441 1441 1440 1439 1438 1437 1436 1435 1435 1434 1433 1432 1431 1429 1428 1427 1426 1425 1424 1423 1423 1422 1422 1421 1420 1420 1419 1419 1419 1419 1418 1418 1418 1418 1419 1419 1419 1419